GW5027 Weather Reports


Display with metric or nautical units.
time (UTC)temp
F
wind
direction
speed
MPH
gust
MPH
rain 1hr
in
rain 24hr
in
rain mn
in
humidity
%
barometer
mb
20260503213600 60 107 0.0 2.0 0.00 0.06 0.06 91 1012.2
20260503213103 61 108 0.0 2.0 0.00 0.06 0.06 91 1012.2
20260503213002 61 108 0.0 2.0 0.00 0.06 0.06 91 1016.8
20260503212600 61 169 0.0 2.0 0.00 0.06 0.06 90 1012.1
20260503212103 61 136 1.0 2.0 0.00 0.06 0.06 90 1012.0
20260503211606 61 86 0.0 2.0 0.00 0.06 0.06 91 1012.1
20260503211503 61 124 1.0 2.0 0.00 0.06 0.06 90 1016.6
20260503211100 61 77 0.0 2.0 0.00 0.06 0.06 90 1012.1
20260503211002 61 88 0.0 2.0 0.00 0.06 0.06 90 1016.6
20260503210600 61 69 0.0 1.0 0.00 0.06 0.06 90 1012.1
20260503210501 61 84 0.0 1.0 0.00 0.06 0.06 90 1016.6
20260503210100 61 93 0.0 1.0 0.00 0.06 0.06 90 1012.1
20260503210006 61 90 1.0 1.0 0.00 0.06 0.06 90 1016.6
20260503210004 61 90 0.0 1.0 0.00 0.06 0.06 90 1012.1
20260503205600 61 78 0.0 1.0 0.00 0.06 0.06 90 1012.2
20260503205502 61 77 0.0 1.0 0.00 0.06 0.06 90 1016.7
20260503205101 61 125 0.0 1.0 0.00 0.06 0.06 90 1012.3
20260503205002 61 125 0.0 1.0 0.00 0.06 0.06 90 1016.8
20260503204502 61 125 0.0 1.0 0.01 0.06 0.06 90 1016.8
20260503204100 61 285 0.0 2.0 0.01 0.06 0.06 90 1012.3
20260503204002 61 285 0.0 2.0 0.01 0.06 0.06 90 1016.8
20260503203600 61 284 0.0 3.0 0.01 0.06 0.06 90 1012.3
20260503203502 61 283 1.0 3.0 0.01 0.06 0.06 90 1016.8
20260503203106 61 278 0.0 3.0 0.02 0.06 0.06 90 1012.2
20260503203002 61 278 1.0 3.0 0.02 0.06 0.06 90 1016.8
20260503202601 61 297 0.0 2.0 0.02 0.06 0.06 90 1012.3
20260503202501 61 311 1.0 2.0 0.02 0.06 0.06 90 1016.7
20260503202100 61 245 0.0 2.0 0.02 0.06 0.06 90 1012.3
20260503202003 61 244 0.0 2.0 0.02 0.06 0.06 90 1016.8
20260503201601 61 300 0.0 2.0 0.02 0.06 0.06 90 1012.2
20260503201501 61 301 0.0 2.0 0.02 0.06 0.06 90 1016.7
20260503201103 61 344 0.0 3.0 0.02 0.06 0.06 90 1012.0
20260503201003 61 344 1.0 3.0 0.02 0.06 0.06 90 1016.5
20260503200600 61 257 1.0 3.0 0.02 0.06 0.06 90 1012.0
20260503200100 61 295 1.0 3.0 0.02 0.06 0.06 90 1012.0
20260503200005 61 293 1.0 3.0 0.03 0.06 0.06 90 1016.5
20260503200003 61 293 1.0 3.0 0.03 0.06 0.06 90 1012.0
20260503195601 61 335 0.0 1.0 0.03 0.07 0.06 90 1011.9
20260503195100 62 336 0.0 0.0 0.04 0.07 0.06 90 1011.8
20260503195001 62 336 0.0 1.0 0.04 0.07 0.06 90 1016.4
20260503194601 62 271 0.0 1.0 0.03 0.06 0.06 90 1011.9
20260503194501 62 271 0.0 1.0 0.03 0.06 0.06 90 1016.4
20260503194100 62 271 0.0 2.0 0.03 0.06 0.06 90 1011.8
20260503193600 62 280 0.0 2.0 0.03 0.06 0.06 89 1011.8
20260503193101 62 271 0.0 4.0 0.02 0.06 0.05 89 1011.8
20260503193001 62 293 2.0 4.0 0.02 0.06 0.05 89 1016.2
20260503192600 62 297 2.0 6.0 0.02 0.06 0.05 89 1011.7
20260503192501 62 283 3.0 6.0 0.02 0.06 0.05 89 1016.3
20260503192100 62 276 2.0 6.0 0.02 0.06 0.05 88 1011.7
20260503192001 62 305 3.0 6.0 0.02 0.06 0.05 88 1016.2
20260503191601 62 287 2.0 7.0 0.02 0.06 0.05 88 1011.7
20260503191501 62 289 2.0 7.0 0.02 0.06 0.05 88 1016.1
20260503191101 62 212 2.0 7.0 0.02 0.06 0.05 87 1011.5
20260503191001 62 296 2.0 7.0 0.02 0.06 0.05 87 1016.0
20260503190605 62 257 1.0 4.0 0.02 0.05 0.04 86 1011.5
20260503190501 63 252 1.0 4.0 0.02 0.05 0.04 86 1016.0
20260503190101 63 236 1.0 5.0 0.01 0.04 0.03 86 1011.4
20260503190005 63 286 1.0 5.0 0.01 0.04 0.03 85 1015.9
20260503185601 63 188 1.0 5.0 0.02 0.05 0.03 85 1011.4
20260503185503 63 273 1.0 5.0 0.01 0.04 0.02 85 1015.9
20260503185100 63 262 1.0 3.0 0.01 0.04 0.02 85 1011.2
20260503185001 64 285 0.0 3.0 0.01 0.04 0.02 85 1015.7
20260503184609 64 214 0.0 1.0 0.01 0.04 0.02 85 1011.0
20260503184501 64 214 0.0 1.0 0.01 0.04 0.02 85 1015.5
20260503184100 64 214 0.0 2.0 0.01 0.04 0.02 84 1011.0
20260503184001 64 214 0.0 2.0 0.01 0.04 0.02 84 1015.5
20260503183600 64 70 0.0 2.0 0.01 0.04 0.02 84 1010.9
20260503183503 63 70 0.0 2.0 0.01 0.04 0.02 85 1015.4
20260503183103 63 66 0.0 2.0 0.01 0.04 0.02 85 1010.8
20260503183001 63 32 0.0 2.0 0.01 0.04 0.02 85 1015.3
20260503182603 63 322 0.0 2.0 0.01 0.04 0.02 84 1010.8
20260503182501 63 322 0.0 2.0 0.01 0.04 0.02 84 1015.3
20260503182100 63 346 0.0 5.0 0.01 0.04 0.02 84 1010.8
20260503182002 63 346 1.0 5.0 0.01 0.04 0.02 84 1015.3
20260503181603 64 14 0.0 5.0 0.01 0.04 0.02 83 1010.7
20260503181100 64 43 0.0 6.0 0.01 0.04 0.02 82 1010.8
20260503181001 64 75 2.0 6.0 0.01 0.04 0.02 81 1015.3
20260503180601 64 108 2.0 6.0 0.01 0.04 0.02 81 1010.6
20260503180504 64 68 3.0 6.0 0.01 0.04 0.02 81 1015.2
20260503180501 64 68 3.0 6.0 0.01 0.04 0.02 81 1010.6
20260503180005 65 83 3.0 5.0 0.00 0.03 0.02 80 1015.1
20260503180003 65 83 2.0 5.0 0.00 0.03 0.02 80 1010.6
20260503175600 65 86 2.0 5.0 0.00 0.03 0.02 79 1010.6
20260503175501 65 89 2.0 5.0 0.00 0.03 0.02 78 1015.1
20260503175100 65 68 2.0 5.0 0.00 0.03 0.02 78 1010.5
20260503175001 66 94 2.0 5.0 0.00 0.03 0.02 78 1015.0
20260503174620 66 167 1.0 4.0 0.00 0.03 0.02 78 1010.4
20260503174501 66 85 1.0 4.0 0.00 0.03 0.02 78 1014.9
20260503174100 66 64 1.0 2.0 0.00 0.03 0.02 78 1010.2
20260503174003 66 108 1.0 2.0 0.00 0.03 0.02 78 1014.7
20260503173600 66 92 1.0 2.0 0.00 0.03 0.02 77 1010.3
20260503173501 66 49 1.0 2.0 0.00 0.03 0.02 77 1014.8
20260503173107 66 78 0.0 2.0 0.00 0.03 0.02 77 1010.3
20260503173001 66 71 0.0 2.0 0.00 0.03 0.02 76 1014.8
20260503172601 66 76 0.0 1.0 0.00 0.03 0.02 77 1010.4
20260503172501 66 76 0.0 1.0 0.00 0.03 0.02 77 1014.9
20260503172100 66 72 0.0 2.0 0.00 0.03 0.02 76 1010.3
20260503172003 66 74 0.0 2.0 0.00 0.03 0.02 76 1014.9
20260503171604 66 70 1.0 4.0 0.00 0.03 0.02 75 1010.3
20260503171501 66 65 1.0 4.0 0.00 0.03 0.02 76 1014.9
20260503171103 66 60 1.0 4.0 0.00 0.03 0.02 76 1010.4
20260503171001 66 103 1.0 4.0 0.00 0.03 0.02 75 1014.9
20260503170600 66 75 1.0 3.0 0.00 0.03 0.02 75 1010.4
20260503160115 65 60 4.0 9.0 0.00 0.07 0.02 73 1010.5
20260503151001 63 76 4.0 9.0 0.00 0.07 0.02 77 1016.0
20260503150600 62 68 2.0 5.0 0.00 0.07 0.02 78 1011.6
20260503150105 62 63 3.0 5.0 0.00 0.07 0.02 77 1011.8
20260503140109 61 319 0.0 6.0 0.02 0.07 0.02 84 1012.8
20260503131100 63 58 6.0 19.0 0.00 0.06 0.00 78 1013.3
20260503131003 63 295 8.0 19.0 0.00 0.06 0.00 78 1017.7
20260503130600 64 269 6.0 19.0 0.00 0.06 0.00 74 1013.1
20260503130501 65 286 6.0 19.0 0.00 0.06 0.00 72 1017.6
20260503110600 71 114 4.0 7.0 0.00 0.09 0.00 60 1012.8
20260503110501 71 150 2.0 8.0 0.00 0.09 0.00 60 1012.7
20260503100130 69 304 0.0 4.0 0.00 0.09 0.00 75 1013.1
20260503090501 64 333 2.0 5.0 0.00 0.09 0.00 83 1018.0
20260503081608 63 84 0.0 3.0 0.00 0.09 0.00 84 1013.4
20260503081503 63 75 1.0 3.0 0.00 0.09 0.00 85 1018.0
20260503081100 63 68 0.0 2.0 0.00 0.09 0.00 85 1013.4
20260503081001 63 74 0.0 2.0 0.00 0.09 0.00 85 1018.0
20260503080601 63 75 0.0 1.0 0.00 0.09 0.00 87 1013.5
20260503080501 63 72 0.0 1.0 0.00 0.09 0.00 87 1018.1
20260503072600 62 287 0.0 1.0 0.00 0.09 0.00 90 1013.6
20260503072501 62 287 0.0 2.0 0.00 0.09 0.00 90 1018.1
20260503072100 61 288 0.0 2.0 0.00 0.09 0.00 90 1013.5
20260503072001 61 288 0.0 2.0 0.00 0.09 0.00 90 1018.0
20260503071600 61 285 0.0 2.0 0.00 0.09 0.00 90 1013.6
20260503071503 61 284 0.0 2.0 0.00 0.09 0.00 90 1018.1
20260503071101 61 355 0.0 1.0 0.00 0.09 0.00 90 1013.7
20260503071001 61 349 0.0 1.0 0.00 0.09 0.00 90 1018.2
20260503070601 61 349 0.0 1.0 0.00 0.09 0.00 90 1013.7
20260503070501 61 349 0.0 1.0 0.00 0.09 0.00 90 1018.2
20260503070103 61 65 0.0 2.0 0.00 0.09 0.00 90 1013.6
20260503055100 58 79 0.0 2.0 0.00 0.09 0.00 92 1013.3
20260503055001 58 87 1.0 2.0 0.00 0.09 0.00 92 1017.9
20260503054600 58 79 0.0 1.0 0.00 0.09 0.00 92 1013.3
20260503054100 58 77 0.0 1.0 0.00 0.09 0.00 92 1013.2
20260503053600 58 125 0.0 1.0 0.00 0.09 0.00 92 1013.2
20260503053503 58 146 0.0 1.0 0.00 0.09 0.00 92 1017.7
20260503053100 58 140 0.0 1.0 0.00 0.09 0.00 92 1013.2
20260503053004 58 140 0.0 1.0 0.00 0.09 0.00 92 1017.8
20260503052600 58 163 0.0 1.0 0.00 0.09 0.00 92 1013.3
20260503052501 58 163 0.0 1.0 0.00 0.09 0.00 92 1017.8
20260503052059 58 77 0.0 1.0 0.00 0.09 0.00 92 1013.2
20260503052001 58 77 0.0 1.0 0.00 0.09 0.00 92 1017.7
20260503051600 58 69 0.0 1.0 0.00 0.09 0.00 92 1013.2
20260503051501 58 69 0.0 1.0 0.00 0.09 0.00 92 1017.7
20260503051100 59 68 0.0 2.0 0.00 0.09 0.00 92 1013.1
20260503051002 59 68 0.0 2.0 0.00 0.09 0.00 92 1017.6
20260503050600 59 68 0.0 2.0 0.00 0.09 0.00 92 1013.1
20260503050005 59 131 0.0 2.0 0.00 0.09 0.00 92 1017.6
20260503050002 59 131 0.0 2.0 0.00 0.09 0.00 92 1013.0
20260503045603 59 243 0.0 2.0 0.00 0.09 0.00 92 1013.1
20260503045100 59 79 0.0 2.0 0.00 0.09 0.00 92 1013.1
20260503044600 59 77 0.0 1.0 0.00 0.09 0.00 92 1013.1
20260503044501 59 251 0.0 0.0 0.00 0.09 0.00 92 1017.7
20260503044103 59 251 0.0 0.0 0.00 0.09 0.00 92 1013.1
20260503044001 59 251 0.0 0.0 0.00 0.09 0.00 92 1017.6
20260503043600 59 251 0.0 0.0 0.00 0.09 0.00 92 1013.1
20260503043501 59 251 0.0 0.0 0.00 0.09 0.00 92 1017.6
20260503043117 59 252 0.0 1.0 0.00 0.09 0.00 92 1013.1
20260503043003 59 252 0.0 1.0 0.00 0.09 0.00 92 1017.6
20260503042600 59 250 0.0 1.0 0.00 0.09 0.00 92 1013.2
20260503042501 59 250 0.0 2.0 0.00 0.09 0.00 92 1017.8
20260503042100 60 232 0.0 2.0 0.00 0.09 0.00 92 1013.3
20260503042001 60 266 1.0 2.0 0.00 0.09 0.00 92 1017.8
20260503041600 60 261 0.0 2.0 0.00 0.09 0.00 92 1013.2
20260503041100 60 278 0.0 3.0 0.00 0.09 0.00 92 1013.3
20260503041003 60 288 1.0 3.0 0.00 0.09 0.00 92 1017.8
20260503040600 60 261 0.0 3.0 0.00 0.09 0.00 92 1013.3
20260503040501 60 275 1.0 3.0 0.00 0.09 0.00 92 1017.8
20260503040105 60 288 0.0 3.0 0.00 0.09 0.00 92 1013.2
20260503040004 60 288 0.0 2.0 0.00 0.09 0.00 92 1013.2
20260503035600 60 288 0.0 2.0 0.00 0.09 0.00 92 1013.2
20260503035501 60 297 1.0 2.0 0.00 0.09 0.00 92 1017.7
20260503035100 60 311 0.0 4.0 0.00 0.09 0.00 92 1013.2
20260503035001 60 306 1.0 4.0 0.00 0.09 0.00 92 1017.8
20260503034612 60 327 1.0 6.0 0.00 0.09 0.00 92 1013.2
20260503034501 60 324 2.0 6.0 0.00 0.09 0.00 92 1017.7
20260503034101 60 285 1.0 6.0 0.00 0.09 0.00 92 1013.2
20260503034002 60 307 1.0 6.0 0.00 0.09 0.00 92 1017.7
20260503033559 60 333 1.0 3.0 0.00 0.09 0.00 92 1013.2
20260503033501 60 319 1.0 3.0 0.00 0.09 0.00 92 1017.8
20260503033100 60 333 0.0 3.0 0.00 0.09 0.00 92 1013.2
20260503032601 60 327 1.0 3.0 0.00 0.09 0.00 92 1013.1
20260503032104 60 347 0.0 2.0 0.00 0.09 0.00 92 1013.2
20260503032004 60 328 0.0 2.0 0.00 0.09 0.00 92 1017.7
20260503031600 60 324 0.0 2.0 0.00 0.09 0.00 92 1013.2
20260503031501 60 325 0.0 2.0 0.00 0.09 0.00 92 1017.8
20260503031100 60 322 0.0 2.0 0.00 0.09 0.00 92 1013.3
20260503031001 60 300 0.0 2.0 0.00 0.09 0.00 92 1017.8
20260503030600 60 289 0.0 2.0 0.00 0.09 0.00 92 1013.3
20260503030501 60 307 1.0 2.0 0.00 0.09 0.00 92 1017.9
20260503030100 60 302 0.0 3.0 0.00 0.09 0.00 92 1013.4
20260503030006 60 300 1.0 3.0 0.00 0.09 0.00 92 1017.9
20260503030004 60 300 1.0 3.0 0.00 0.09 0.00 92 1013.4
20260503025600 60 295 1.0 4.0 0.00 0.09 0.00 92 1013.5
20260503025501 60 297 2.0 4.0 0.00 0.09 0.00 92 1018.0
20260503025100 60 284 1.0 4.0 0.00 0.09 0.00 92 1013.5
20260503024600 60 281 1.0 3.0 0.00 0.09 0.00 92 1013.5
20260503024502 60 269 1.0 3.0 0.00 0.09 0.00 92 1018.1
20260503024103 60 286 0.0 3.0 0.00 0.09 0.00 92 1013.4
20260503024001 60 281 1.0 3.0 0.00 0.09 0.00 92 1018.0
20260503023559 60 282 1.0 3.0 0.00 0.09 0.00 92 1013.5
20260503023501 60 301 1.0 3.0 0.00 0.09 0.00 92 1018.0
20260503023100 60 330 0.0 2.0 0.00 0.09 0.00 92 1013.4
20260503023002 60 333 1.0 2.0 0.00 0.09 0.00 92 1018.0
20260503022601 60 355 0.0 2.0 0.00 0.09 0.00 92 1013.4
20260503022501 60 318 1.0 2.0 0.00 0.09 0.00 92 1018.0
20260503022100 60 278 0.0 2.0 0.00 0.09 0.00 92 1013.5
20260503022003 60 277 1.0 2.0 0.00 0.09 0.00 92 1018.0
20260503021600 60 347 0.0 3.0 0.00 0.09 0.00 91 1013.6
20260503021100 60 277 0.0 3.0 0.00 0.09 0.00 92 1013.6
20260503021001 60 327 1.0 3.0 0.00 0.09 0.00 92 1018.2
20260503020600 60 339 0.0 3.0 0.00 0.09 0.00 92 1013.6
20260503020100 60 326 1.0 3.0 0.00 0.09 0.00 91 1013.5
20260503020007 60 307 1.0 3.0 0.00 0.09 0.00 91 1018.1
20260503020003 60 307 1.0 3.0 0.00 0.09 0.00 91 1013.5
20260503015502 60 319 1.0 4.0 0.00 0.09 0.00 91 1013.6
20260503015002 60 322 2.0 4.0 0.00 0.09 0.00 91 1018.2
20260503014503 60 325 1.0 4.0 0.00 0.09 0.00 91 1013.7
20260503014004 60 337 2.0 5.0 0.00 0.09 0.00 91 1018.3
20260503014001 60 337 1.0 5.0 0.00 0.09 0.00 91 1013.7
20260503013501 60 328 2.0 5.0 0.00 0.09 0.00 91 1013.7
20260503013002 60 333 2.0 4.0 0.00 0.09 0.00 91 1018.2
20260503012503 60 354 1.0 3.0 0.00 0.09 0.00 91 1013.7
20260503012004 60 312 1.0 5.0 0.00 0.09 0.00 91 1018.4
20260503012002 60 312 1.0 5.0 0.00 0.09 0.00 91 1013.9
20260503011502 60 321 1.0 5.0 0.00 0.09 0.00 91 1013.9
20260503011002 60 329 2.0 5.0 0.00 0.09 0.00 91 1018.4
20260503010502 60 307 1.0 4.0 0.00 0.09 0.00 91 1013.9
20260503010005 60 306 2.0 5.0 0.00 0.09 0.00 90 1018.4
20260503005600 60 322 2.0 5.0 0.00 0.09 0.00 90 1014.0
20260503005501 60 327 2.0 5.0 0.00 0.09 0.00 90 1018.5
20260503005100 60 323 1.0 4.0 0.00 0.09 0.00 90 1014.0
20260503005003 60 353 1.0 4.0 0.00 0.09 0.00 90 1018.5
20260503004601 60 301 1.0 4.0 0.00 0.09 0.00 90 1014.0
20260503004501 60 342 1.0 4.0 0.00 0.09 0.00 90 1018.5
20260503004100 60 311 1.0 4.0 0.00 0.09 0.00 90 1014.0
20260503003600 61 294 1.0 6.0 0.00 0.09 0.00 90 1014.1
20260503003501 60 290 2.0 6.0 0.00 0.09 0.00 89 1018.6
20260503003107 61 326 2.0 6.0 0.00 0.09 0.00 89 1014.0
20260503003004 61 292 2.0 6.0 0.00 0.09 0.00 89 1018.5
20260503002600 61 316 1.0 6.0 0.00 0.09 0.00 89 1014.2
20260503002501 61 351 2.0 6.0 0.00 0.09 0.00 89 1018.6
20260503002100 61 360 1.0 6.0 0.00 0.09 0.00 89 1014.1
20260503001613 61 13 2.0 6.0 0.00 0.09 0.00 89 1014.2
20260503001501 61 359 2.0 6.0 0.00 0.09 0.00 89 1018.8
20260503001100 61 293 1.0 5.0 0.00 0.09 0.00 88 1014.2
20260503001003 61 339 2.0 5.0 0.00 0.09 0.00 88 1018.8
20260503000503 61 317 1.0 6.0 0.00 0.09 0.00 88 1014.4
20260503000005 62 302 2.0 6.0 0.00 0.09 0.00 87 1018.8
20260503000003 62 302 2.0 6.0 0.00 0.09 0.00 87 1014.3
20260502235503 62 342 3.0 10.0 0.00 0.09 0.00 86 1018.8
20260502235004 62 301 4.0 10.0 0.00 0.09 0.00 85 1018.7
20260502235002 62 301 4.0 10.0 0.00 0.09 0.00 85 1014.2
20260502234502 63 305 3.0 7.0 0.00 0.09 0.00 81 1018.7
20260502234002 63 282 3.0 6.0 0.00 0.09 0.00 79 1018.8
20260502233501 63 306 3.0 6.0 0.00 0.09 0.00 77 1014.2
20260502233004 63 279 2.0 6.0 0.00 0.09 0.00 75 1018.7
20260502233001 63 261 2.0 6.0 0.00 0.09 0.00 75 1014.2
20260502232503 63 253 2.0 6.0 0.00 0.09 0.00 74 1018.8
20260502232501 63 253 2.0 6.0 0.00 0.09 0.00 74 1014.3
20260502232002 63 276 2.0 4.0 0.00 0.09 0.00 75 1018.8
20260502231502 63 288 2.0 5.0 0.00 0.09 0.00 75 1018.8
20260502231003 63 270 1.0 5.0 0.00 0.09 0.00 75 1018.8
20260502230503 63 226 1.0 4.0 0.00 0.09 0.00 76 1018.7
20260502230501 63 226 0.0 4.0 0.00 0.09 0.00 76 1014.2
20260502230004 63 80 1.0 6.0 0.00 0.09 0.00 76 1014.1
20260502225502 63 101 3.0 6.0 0.00 0.09 0.00 76 1018.4
20260502225004 63 83 3.0 7.0 0.00 0.09 0.00 76 1018.3
20260502224503 63 87 3.0 7.0 0.00 0.09 0.00 77 1018.3
20260502224501 63 87 3.0 7.0 0.00 0.09 0.00 77 1013.8
20260502224003 63 104 2.0 4.0 0.00 0.09 0.00 77 1013.8
20260502223503 63 84 2.0 6.0 0.00 0.09 0.00 77 1013.9
20260502223003 63 79 2.0 6.0 0.00 0.09 0.00 77 1013.8
20260502222504 63 66 3.0 6.0 0.00 0.09 0.00 77 1018.4
20260502222502 63 135 3.0 6.0 0.00 0.09 0.00 77 1013.9
20260502222004 63 92 3.0 6.0 0.00 0.09 0.00 78 1018.3
20260502222002 63 92 3.0 6.0 0.00 0.09 0.00 78 1013.7
20260502221503 63 83 4.0 6.0 0.00 0.09 0.00 78 1018.2
20260502221002 62 75 3.0 6.0 0.00 0.09 0.00 79 1013.7
20260502220502 62 69 3.0 6.0 0.00 0.09 0.00 79 1013.7
20260502220007 62 115 3.0 6.0 0.00 0.09 0.00 80 1018.3
20260502220005 62 115 2.0 6.0 0.00 0.09 0.00 80 1013.8
20260502215503 62 126 3.0 6.0 0.00 0.09 0.09 81 1013.8
20260502215002 62 112 2.0 5.0 0.00 0.09 0.09 82 1013.8
20260502214502 62 118 2.0 4.0 0.00 0.09 0.09 82 1013.8
20260502214003 62 91 2.0 4.0 0.00 0.09 0.09 83 1018.2
20260502214001 62 91 2.0 4.0 0.00 0.09 0.09 83 1013.7